Location: Nairn
(57.5833°N, 3.8667°W)
Time: 03:37:32
(UTC+00:00)

Cosmos 2297 Rocket - Pass Details

Date: 07 August 2020
Orbit: 838 x 845 km, 71.0° (Epoch: 25 September)

Event Time Altitude Azimuth Distance (km) Brightness Sun altitude
Exits shadow 02:27:43 15° 200° (SSW) 2,115 3.6 -11.6°
Maximum altitude 02:32:23 67° 120° (ESE) 910 2.4 -11.3°
Drops below altitude 10° 02:38:00 10° 39° (NE) 2,471 6.2 -10.9°
Sets 02:40:28 0° 37° (NE) 3,410 7.6 -10.7°
